Погода в Ильинке

Россия / Воронежская область     50°26′23″N   41°07′02″E
темп.,
°C
ветер,
м/с
пор.,
м/с
влажн.,
%
обл.,
%
осадки,
мм/ч
давл.,
гПа
погр.,
м
9 мая, вс
вс900:00+12з2393100 0.0 100852
03:00+11зсз4896100 0.9 1009460
06:00+6сз61190100 0.7 1010508
09:00+5сз61091100 4.8 1012652
12:00+6сз71082100 2.9 1013971
15:00+8сз81073100 2.9 10161262
18:00+8ссз61170100 0.0 10171380
21:00+7ссз61176100 0.0 1019961
10 мая, пн
пн1000:00+6ссз71477100 0.0 10181082
03:00+6ссз71279100 0.0 10191086
06:00+6с81380100 0.0 1019930
09:00+7с91580100 0.0 1018972
12:00+7с111887100 0.1 1017745
15:00+7с101892100 0.9 1016761
18:00+9ссв112194100 2.4 1014857
21:00+10ссв112093100 3.7 1015811
11 мая, вт
вт1100:00+11св101793100 0.4 1014773
03:00+9вюв51096100 4.8 1016558
06:00+7в4895100 6.5 1018539
09:00+9вюв7107695 6.7 10211059
12:00+12вюв81164100 0.0 10221527
15:00+12юв6966100 0.0 10231367
18:00+13в486932 0.0 1023887
21:00+8всв369282 0.1 1023111
12 мая, ср
ср1200:00+8в3790100 0.0 1023146
03:00+7всв339140 0.0 102246
06:00+8в25894 0.0 1022162
09:00+14вюв44685 0.0 1022670
12:00+17вюв455162 0.0 10221508
15:00+18в454962 0.0 10211673
18:00+17в3463100 0.0 1020167
21:00+13св2273100 0.0 101915
13 мая, чт
чт1300:00+13всв2294100 0.0 101857
03:00+13всв119558 0.0 101715
06:00+13вюв12935 0.0 101773
09:00+18ююв35680 0.0 1017808
12:00+21ююв45524 0.0 10181556
15:00+22ююв5649100 0.0 10171690
18:00+21юв476376 0.0 1017303
21:00+16юв3375100 0.0 101728